Overview Statistics Trail Chart Weather Telemetry Raw packets
 

This is the latest recevied weather packets stored in our database for station/object SA7AHC. If no packets are shown the sender has not sent any weather packets the latest 10 day(s).

<< 50 51 52 53 54 55 56 >>
Time Temp. Humidity Pressure Rain* Wind** Luminosity Snow
1787857953 13.33° C 78% 1024.4 hPa 0 mm - 0 W/m² -
1787857349 13.33° C 77% 1024.7 hPa 0 mm - 0 W/m² -
1787856749 13.89° C 76% 1024.9 hPa 0 mm - 0 W/m² -
1787856150 14.44° C 75% 1024.9 hPa 0 mm - 0 W/m² -
1787855549 14.44° C 73% 1024.8 hPa 0 mm - 0 W/m² -
1787854949 15° C 72% 1024.9 hPa 0 mm - 0 W/m² -
1787854350 15.56° C 70% 1024.9 hPa 0 mm - 0 W/m² -
1787853751 15.56° C 69% 1024.8 hPa 0 mm - 0 W/m² -
1787853150 16.11° C 67% 1025 hPa 0 mm - 7 W/m² -
1787852552 16.11° C 67% 1025 hPa 0 mm - 11 W/m² -
1787851941 16.67° C 66% 1025.1 hPa 0 mm - 14 W/m² -
1787851340 17.22° C 65% 1025.1 hPa 0 mm - 18 W/m² -
1787850740 17.78° C 63% 1025.1 hPa 0 mm - 21 W/m² -
1787850133 18.33° C 60% 1025.2 hPa 0 mm - 25 W/m² -
1787849533 18.33° C 61% 1025.1 hPa 0 mm - 88 W/m² -
1787848933 18.89° C 61% 1025.1 hPa 0 mm - 118 W/m² -
1787848326 18.89° C 59% 1025.3 hPa 0 mm - 139 W/m² -
1787847729 18.89° C 59% 1025.2 hPa 0 mm - 167 W/m² -
1787847129 18.89° C 61% 1025.2 hPa 0 mm - 192 W/m² -
1787846522 19.44° C 60% 1025.3 hPa 0 mm - 155 W/m² -
1787845922 18.89° C 60% 1025.4 hPa 0 mm - 158 W/m² -
1787845322 18.89° C 59% 1025.3 hPa 0 mm - 104 W/m² -
1787844724 19.44° C 59% 1025.4 hPa 0 mm - 67 W/m² -
1787844122 19.44° C 60% 1025.5 hPa 0 mm - 118 W/m² -
1787843524 20° C 56% 1025.6 hPa 0 mm - 121 W/m² -

* Rain latest hour (hover to see other rain measurements)
** Current wind speed in m/s (hover to see current wind gust speed)